Location: Chuathbaluk
(61.5726°N, 159.2454°W)
Time: 03:37:16
(UTC+00:00)

Transit 2A - Pass Details

Date: 04 December 2020
Orbit: 599 x 960 km, 66.7° (Epoch: 26 January)

Event Time Altitude Azimuth Distance (km) Brightness Sun altitude
Rises 07:47:49 0° 287° (WNW) 3,503 10.2 -42.2°
Reaches altitude 10° 07:50:30 10° 292° (WNW) 2,512 9.2 -42.5°
Enters shadow 07:52:02 18° 297° (WNW) 1,966 8.6 -42.6°
Maximum altitude 07:56:10 52° 9° (N) 994 - -43.0°
Drops below altitude 10° 08:01:16 10° 86° (E) 2,268 - -43.5°
Sets 08:03:35 0° 92° (E) 3,134 - -43.7°
